PSRGV SBDN-SWNS

Flight info

Callsign PSRGV
Flight time N/A
Altitude 29000
Route ASODA UM532 DAKEM DCT GNV
Aircraft TBM8/L-SDFGRWY/S

Departure

Time N/A
Airport Presidente Prudente Airport (SBDN)

Arrival

Time 2026-05-06 01:48
Airport Anápolis Airport (SWNS)
Time Latitude Longitude Altitude Speed Heading
2026-05-06 01:41 -16.49226 -49.05985 5019 ft 242 kts 46°
2026-05-06 01:41 -16.48010 -49.04749 5020 ft 242 kts 46°
2026-05-06 01:42 -16.46797 -49.03517 5020 ft 242 kts 46°
2026-05-06 01:42 -16.45586 -49.02287 5021 ft 242 kts 46°
2026-05-06 01:42 -16.44385 -49.01065 5021 ft 242 kts 46°
2026-05-06 01:42 -16.43286 -48.99950 5008 ft 243 kts 46°
2026-05-06 01:43 -16.42099 -48.98744 5011 ft 242 kts 46°
2026-05-06 01:43 -16.40849 -48.97476 5012 ft 241 kts 46°
2026-05-06 01:43 -16.39647 -48.96245 5118 ft 235 kts 53°
2026-05-06 01:43 -16.38836 -48.94797 5188 ft 216 kts 63°
2026-05-06 01:44 -16.38201 -48.93569 5853 ft 184 kts 62°
2026-05-06 01:44 -16.37504 -48.92411 5569 ft 201 kts 63°
2026-05-06 01:44 -16.36666 -48.91301 5531 ft 193 kts 57°
2026-05-06 01:44 -16.36034 -48.90230 5463 ft 165 kts 66°
2026-05-06 01:45 -16.35517 -48.89173 4819 ft 165 kts 60°
2026-05-06 01:45 -16.35196 -48.88458 4400 ft 160 kts 78°
2026-05-06 01:45 -16.34411 -48.87440 4022 ft 135 kts
2026-05-06 01:45 -16.33692 -48.87737 4120 ft 88 kts 302°
2026-05-06 01:46 -16.33698 -48.88362 3749 ft 97 kts 224°
2026-05-06 01:46 -16.34301 -48.88340 3630 ft 91 kts 139°
2026-05-06 01:46 -16.34835 -48.88205 4017 ft 84 kts 234°
2026-05-06 01:46 -16.34641 -48.88976 3974 ft 126 kts 297°
2026-05-06 01:47 -16.34335 -48.89444 4386 ft 110 kts 299°
2026-05-06 01:47 -16.34275 -48.90161 4632 ft 115 kts 233°
2026-05-06 01:47 -16.34861 -48.90862 4195 ft 133 kts 229°
2026-05-06 01:47 -16.35430 -48.91627 3949 ft 122 kts 230°
2026-05-06 01:48 -16.35906 -48.92255 3756 ft 99 kts 227°
2026-05-06 01:48 -16.36255 -48.92765 3647 ft 76 kts 234°
2026-05-06 01:48 -16.36530 -48.93104 3647 ft 46 kts 233°
2026-05-06 01:48 -16.36634 -48.93247 3647 ft 14 kts 231°
2026-05-06 01:49 -16.36636 -48.93280 3647 ft 6 kts 52°
2026-05-06 01:49 -16.36593 -48.93221 3647 ft 13 kts 54°
2026-05-06 01:49 -16.36528 -48.93127 3647 ft 18 kts 54°
2026-05-06 01:49 -16.36447 -48.93013 3647 ft 21 kts 53°
2026-05-06 01:50 -16.36352 -48.92882 3647 ft 24 kts 54°
2026-05-06 01:50 -16.36252 -48.92738 3647 ft 25 kts 53°
2026-05-06 01:50 -16.36159 -48.92602 3647 ft 21 kts 57°
2026-05-06 01:50 -16.36079 -48.92491 3647 ft 17 kts 52°
2026-05-06 01:51 -16.36041 -48.92463 3647 ft 7 kts 239°
2026-05-06 01:51 -16.36080 -48.92509 3647 ft 8 kts 237°
2026-05-06 01:51 -16.36095 -48.92559 3647 ft 6 kts 313°
2026-05-06 01:51 -16.36066 -48.92585 3647 ft 6 kts 326°
2026-05-06 01:52 -16.36037 -48.92606 3647 ft 4 kts 321°
2026-05-06 01:52 -16.36021 -48.92619 3647 ft 2 kts 321°
2026-05-06 01:52 -16.36014 -48.92624 3647 ft 0 kts 322°
2026-05-06 01:52 -16.36013 -48.92625 3647 ft 1 kts 322°
2026-05-06 01:53 -16.36006 -48.92631 3647 ft 2 kts 322°
2026-05-06 01:53 -16.36005 -48.92632 3647 ft 0 kts 322°